Zurück zum Katalog

HULIANWANG DIGUI-96

AktivKommunikationLEO
NORAD 66412·PAYLOAD·🇨🇳 China

Gestartet Nov 10, 2025 von Wenchang Space Launch Site

Loading…

Nächste Überflüge (nächste 24 Stunden)

TLE

AktuellSource: Space-Track

Epoche: Sep 14, 2026, 14:15 UTC

1 66412U 25258A   26257.59376161 -.00000093  00000-0  67113-4 0  9996
2 66412  50.0063 334.9796 0000109 118.7540 241.3343 13.29330238 41629

Verfolge HULIANWANG DIGUI-96 in Echtzeit mit AllMySat

Download on the App Store